• In Hungary
  • List of Countries
  • For 7 days
  • Water Temperature
  • Satellite Maps
  • Weather Map
  • News
  • Weather Widgets
  • user-avatar
    Login

    Hourly Weather Burehino

    Today, 20 April, Friday

    Time Temperature Precipitation Wind Pressure Humidity
    00:00 +5°C° 0 mm 3 mps 739 mmHg 86%
    01:00 +4°C° 0 mm 3 mps 739 mmHg 89%
    02:00 +4°C° 0 mm 2 mps 739 mmHg 93%
    03:00 +4°C° 0 mm 2 mps 739 mmHg 94%
    04:00 +4°C° 0 mm 2 mps 740 mmHg 95%
    05:00 +3°C° 0 mm 3 mps 740 mmHg 97%
    06:00 +4°C° 0 mm 3 mps 740 mmHg 95%
    07:00 +4°C° 0 mm 3 mps 740 mmHg 93%
    08:00 +5°C° 0 mm 3 mps 740 mmHg 91%
    09:00 +5°C° 0 mm 3 mps 740 mmHg 88%
    10:00 +7°C° 0 mm 3 mps 740 mmHg 86%
    11:00 +8°C° 0 mm 2 mps 740 mmHg 84%
    12:00 +9°C° 0 mm 2 mps 740 mmHg 77%
    13:00 +10°C° 0 mm 2 mps 740 mmHg 71%
    14:00 +12°C° 0 mm 2 mps 740 mmHg 65%
    15:00 +13°C° 0 mm 2 mps 739 mmHg 63%
    16:00 +13°C° 0 mm 2 mps 738 mmHg 61%
    17:00 +13°C° 0 mm 2 mps 738 mmHg 60%
    18:00 +12°C° 0 mm 2 mps 737 mmHg 66%
    19:00 +9°C° 0 mm 2 mps 737 mmHg 72%
    20:00 +8°C° 0 mm 2 mps 736 mmHg 79%
    21:00 +8°C° 0 mm 3 mps 735 mmHg 77%
    22:00 +8°C° 0 mm 3 mps 734 mmHg 76%
    23:00 +7°C° 0 mm 4 mps 734 mmHg 75%

    Tomorrow, 21 April, Saturday

    Time Temperature Precipitation Wind Pressure Humidity
    00:00 +7°C° 0 mm 4 mps 733 mmHg 79%
    01:00 +7°C° 0 mm 4 mps 732 mmHg 84%
    02:00 +8°C° 0 mm 3 mps 732 mmHg 88%
    03:00 +8°C° 0 mm 4 mps 731 mmHg 90%
    04:00 +8°C° 0 mm 4 mps 730 mmHg 91%
    05:00 +8°C° 0 mm 4 mps 729 mmHg 93%
    06:00 +8°C° 0 mm 4 mps 728 mmHg 89%
    07:00 +9°C° 0 mm 5 mps 727 mmHg 84%
    08:00 +9°C° 0 mm 5 mps 726 mmHg 80%
    09:00 +10°C° 0 mm 5 mps 725 mmHg 79%
    10:00 +11°C° 0 mm 6 mps 724 mmHg 79%
    11:00 +11°C° 0 mm 6 mps 723 mmHg 78%
    12:00 +11°C° 0.4 mm 7 mps 722 mmHg 76%
    13:00 +11°C° 0.4 mm 7 mps 722 mmHg 74%
    14:00 +11°C° 0.4 mm 8 mps 721 mmHg 72%
    15:00 +9°C° 0.1 mm 8 mps 722 mmHg 70%
    16:00 +7°C° 0.1 mm 9 mps 722 mmHg 68%
    17:00 +6°C° 0.1 mm 9 mps 722 mmHg 66%
    18:00 +5°C° 0.1 mm 9 mps 723 mmHg 68%
    19:00 +5°C° 0.1 mm 8 mps 723 mmHg 70%
    20:00 +5°C° 0.1 mm 8 mps 724 mmHg 71%
    21:00 +4°C° 0 mm 8 mps 724 mmHg 72%
    22:00 +4°C° 0 mm 8 mps 724 mmHg 73%
    23:00 +3°C° 0 mm 7 mps 724 mmHg 73%

    Day after tomorrow, 22 April, Sunday

    Time Temperature Precipitation Wind Pressure Humidity
    00:00 +3°C° 0 mm 7 mps 725 mmHg 74%
    01:00 +2°C° 0 mm 7 mps 725 mmHg 75%
    02:00 +2°C° 0 mm 6 mps 726 mmHg 76%
    03:00 +1°C° 0 mm 6 mps 726 mmHg 77%
    04:00 +1°C° 0 mm 6 mps 726 mmHg 77%
    05:00 -1°C° 0 mm 6 mps 727 mmHg 78%
    06:00 +1°C° 0 mm 6 mps 727 mmHg 75%
    07:00 +1°C° 0 mm 5 mps 727 mmHg 73%
    08:00 +1°C° 0 mm 5 mps 728 mmHg 70%
    09:00 +2°C° 0 mm 5 mps 728 mmHg 66%
    10:00 +3°C° 0 mm 5 mps 728 mmHg 61%
    11:00 +3°C° 0 mm 5 mps 729 mmHg 57%
    12:00 +5°C° 0 mm 5 mps 729 mmHg 53%
    13:00 +6°C° 0 mm 5 mps 730 mmHg 50%
    14:00 +5°C° 0 mm 6 mps 730 mmHg 46%
    15:00 +6°C° 0 mm 5 mps 730 mmHg 47%
    16:00 +5°C° 0 mm 5 mps 731 mmHg 48%
    17:00 +5°C° 0 mm 5 mps 731 mmHg 49%
    18:00 +3°C° 0 mm 4 mps 732 mmHg 55%
    19:00 +1°C° 0 mm 4 mps 732 mmHg 61%
    20:00 0°C° 0 mm 3 mps 733 mmHg 67%
    21:00 -1°C° 0 mm 2 mps 733 mmHg 69%
    22:00 -1°C° 0 mm 2 mps 734 mmHg 71%
    23:00 -2°C° 0 mm 2 mps 734 mmHg 73%

    23 April, Monday

    Time Temperature Precipitation Wind Pressure Humidity
    00:00 -2°C° 0 mm 2 mps 734 mmHg 74%
    01:00 -3°C° 0 mm 2 mps 735 mmHg 75%
    02:00 -3°C° 0 mm 2 mps 735 mmHg 76%
    03:00 -3°C° 0 mm 2 mps 736 mmHg 76%
    04:00 -3°C° 0 mm 2 mps 736 mmHg 77%
    05:00 -3°C° 0 mm 2 mps 736 mmHg 77%
    06:00 -2°C° 0 mm 2 mps 737 mmHg 68%
    07:00 -1°C° 0 mm 3 mps 737 mmHg 59%
    08:00 +1°C° 0 mm 3 mps 737 mmHg 49%
    09:00 +2°C° 0 mm 3 mps 737 mmHg 45%
    10:00 +3°C° 0 mm 3 mps 737 mmHg 41%
    11:00 +4°C° 0 mm 3 mps 737 mmHg 37%
    12:00 +5°C° 0 mm 3 mps 737 mmHg 36%
    13:00 +7°C° 0 mm 2 mps 737 mmHg 35%
    14:00 +7°C° 0 mm 2 mps 737 mmHg 35%
    15:00 +7°C° 0 mm 2 mps 737 mmHg 36%
    16:00 +7°C° 0 mm 2 mps 736 mmHg 37%
    17:00 +7°C° 0 mm 2 mps 736 mmHg 39%
    18:00 +6°C° 0 mm 1 mps 736 mmHg 46%
    19:00 +4°C° 0 mm 1 mps 736 mmHg 53%
    20:00 +2°C° 0 mm 1 mps 736 mmHg 61%
    21:00 +2°C° 0 mm 1 mps 736 mmHg 63%
    22:00 +1°C° 0 mm 1 mps 736 mmHg 65%
    23:00 +1°C° 0 mm 1 mps 736 mmHg 67%

    24 April, Tuesday

    Time Temperature Precipitation Wind Pressure Humidity
    00:00 0°C° 0 mm 1 mps 736 mmHg 68%
    01:00 0°C° 0 mm 1 mps 736 mmHg 69%
    02:00 0°C° 0 mm 1 mps 736 mmHg 70%
    03:00 -2°C° 0 mm 2 mps 736 mmHg 69%
    04:00 -2°C° 0 mm 2 mps 736 mmHg 68%
    05:00 -2°C° 0 mm 2 mps 735 mmHg 68%
    06:00 +1°C° 0 mm 2 mps 735 mmHg 61%
    07:00 +2°C° 0 mm 3 mps 735 mmHg 54%
    08:00 +4°C° 0 mm 3 mps 735 mmHg 48%
    09:00 +5°C° 0 mm 3 mps 735 mmHg 46%
    10:00 +7°C° 0 mm 3 mps 735 mmHg 45%
    11:00 +7°C° 0 mm 4 mps 734 mmHg 44%
    12:00 +7°C° 0.1 mm 4 mps 734 mmHg 47%
    13:00 +8°C° 0.1 mm 4 mps 734 mmHg 50%
    14:00 +8°C° 0.1 mm 4 mps 733 mmHg 54%
    15:00 +8°C° 0.2 mm 3 mps 733 mmHg 60%
    16:00 +7°C° 0.2 mm 3 mps 733 mmHg 66%
    17:00 +7°C° 0.2 mm 2 mps 732 mmHg 72%
    18:00 +5°C° 0.1 mm 3 mps 732 mmHg 75%
    19:00 +5°C° 0.1 mm 3 mps 732 mmHg 79%
    20:00 +4°C° 0.1 mm 3 mps 732 mmHg 82%
    21:00 +4°C° 0.1 mm 3 mps 731 mmHg 85%
    22:00 +4°C° 0.1 mm 3 mps 731 mmHg 88%
    23:00 +4°C° 0.1 mm 3 mps 731 mmHg 91%

    25 April, Wednesday

    Time Temperature Precipitation Wind Pressure Humidity
    00:00 +4°C° 0 mm 3 mps 731 mmHg 92%
    01:00 +4°C° 0 mm 3 mps 730 mmHg 94%
    02:00 +4°C° 0 mm 3 mps 730 mmHg 95%
    03:00 +5°C° 0.1 mm 2 mps 730 mmHg 96%
    04:00 +5°C° 0.1 mm 2 mps 730 mmHg 96%
    05:00 +5°C° 0.1 mm 2 mps 730 mmHg 96%
    06:00 +5°C° 0 mm 3 mps 730 mmHg 91%
    07:00 +5°C° 0 mm 3 mps 729 mmHg 87%
    08:00 +7°C° 0 mm 3 mps 729 mmHg 82%
    09:00 +6°C° 0.2 mm 4 mps 729 mmHg 79%
    10:00 +7°C° 0.2 mm 4 mps 729 mmHg 76%
    11:00 +7°C° 0.2 mm 4 mps 728 mmHg 73%
    12:00 +7°C° 0.2 mm 4 mps 728 mmHg 76%
    13:00 +8°C° 0.2 mm 5 mps 728 mmHg 78%
    14:00 +8°C° 0.2 mm 5 mps 727 mmHg 80%
    15:00 +8°C° 0.3 mm 5 mps 727 mmHg 80%
    16:00 +8°C° 0.3 mm 4 mps 727 mmHg 79%
    17:00 +10°C° 0.3 mm 4 mps 726 mmHg 78%
    18:00 +8°C° 0.2 mm 4 mps 726 mmHg 83%
    19:00 +8°C° 0.2 mm 3 mps 726 mmHg 88%
    20:00 +7°C° 0.2 mm 2 mps 726 mmHg 93%
    21:00 +6°C° 0.1 mm 2 mps 725 mmHg 94%
    22:00 +6°C° 0.1 mm 2 mps 725 mmHg 96%
    23:00 +5°C° 0.1 mm 2 mps 725 mmHg 97%
    Show more